TimeCDT,TemperatureF,Dew PointF,Humidity,Sea Level PressureIn,VisibilityMPH,Wind Direction,Wind SpeedMPH,Gust SpeedMPH,PrecipitationIn,Events,Conditions,WindDirDegrees,DateUTC
12:52 AM,51.1,30.9,46,30.13,10.0,South,3.5,-,N/A,,Clear,170,2013-05-13 05:52:00
1:52 AM,50.0,30.9,48,30.12,10.0,SSE,4.6,-,N/A,,Clear,160,2013-05-13 06:52:00
2:52 AM,52.0,30.0,43,30.10,10.0,South,6.9,-,N/A,,Scattered Clouds,170,2013-05-13 07:52:00
3:52 AM,51.1,32.0,48,30.10,10.0,SSE,8.1,-,N/A,,Mostly Cloudy,160,2013-05-13 08:52:00
4:52 AM,50.0,35.1,57,30.09,10.0,SE,6.9,-,N/A,,Mostly Cloudy,140,2013-05-13 09:52:00
5:52 AM,48.9,37.0,64,30.08,10.0,SSE,8.1,-,N/A,,Mostly Cloudy,160,2013-05-13 10:52:00
6:52 AM,48.9,37.9,66,30.09,10.0,SE,5.8,-,N/A,,Mostly Cloudy,130,2013-05-13 11:52:00
7:52 AM,53.1,39.0,59,30.09,10.0,SSE,6.9,-,N/A,,Scattered Clouds,160,2013-05-13 12:52:00
8:52 AM,57.9,41.0,53,30.08,10.0,SSE,11.5,-,N/A,,Scattered Clouds,160,2013-05-13 13:52:00
9:52 AM,64.9,43.0,45,30.05,10.0,South,15.0,-,N/A,,Scattered Clouds,180,2013-05-13 14:52:00
10:52 AM,69.1,43.0,39,30.04,10.0,South,16.1,-,N/A,,Scattered Clouds,190,2013-05-13 15:52:00
11:52 AM,71.1,43.0,36,30.02,10.0,South,17.3,-,N/A,,Scattered Clouds,180,2013-05-13 16:52:00
12:52 PM,75.0,44.1,33,29.99,10.0,South,16.1,24.2,N/A,,Mostly Cloudy,190,2013-05-13 17:52:00
1:52 PM,78.1,43.0,29,29.95,10.0,South,18.4,26.5,N/A,,Mostly Cloudy,190,2013-05-13 18:52:00
3:52 PM,82.0,42.1,24,29.90,10.0,South,16.1,28.8,N/A,,Mostly Cloudy,190,2013-05-13 20:52:00
4:52 PM,82.9,43.0,24,29.88,10.0,SSW,18.4,25.3,N/A,,Overcast,200,2013-05-13 21:52:00
5:52 PM,82.9,43.0,24,29.86,10.0,SSW,15.0,28.8,N/A,,Overcast,200,2013-05-13 22:52:00
6:52 PM,82.4,42.8,25,29.85,10.0,South,13.8,21.9,N/A,,Overcast,190,2013-05-13 23:52:00
7:52 PM,80.1,46.0,30,29.83,10.0,South,11.5,-,N/A,,Overcast,180,2013-05-14 00:52:00
8:52 PM,78.1,46.9,33,29.83,10.0,South,11.5,-,N/A,,Overcast,180,2013-05-14 01:52:00
9:52 PM,75.9,48.0,37,29.83,10.0,South,11.5,-,N/A,,Overcast,170,2013-05-14 02:52:00
10:52 PM,73.0,50.0,44,29.84,10.0,South,9.2,-,N/A,,Mostly Cloudy,180,2013-05-14 03:52:00
11:52 PM,70.0,50.0,49,29.83,10.0,South,10.4,-,N/A,,Mostly Cloudy,170,2013-05-14 04:52:00